ZHUHAI-1 02 (CAS 4B) (42759 NORAD) Tracking and Keplerian Element Data

This shows tracking and keplerian element data for the satellite.

Feedback or suggestion? Click here.




ElementValue
Catalog42759
NameZHUHAI-1 02 (CAS 4B)
Epoch Orbit7887
Epoch Day323.19203067
Epoch Year2018
RAAN312.2441
Inclination43.0197
Eccentricity0.001094
Argument of Perigee353.219
Mean Anonmoly113.3222
Mean Motion15.0942273
Decay Rate1.18E-06
L11 42759U 17034B 18323.19203067 .00000118 00000-0 20833-4 0 9997
L22 42759 43.0197 312.2441 0010940 353.2190 113.3222 15.09422730 78874

Live tracking and technical data element details for ZHUHAI-1 02 (CAS 4B) (NORAD 42759). ZHUHAI-1 02 (CAS 4B) can be tracked NOW for your location showing map with azimuth and elevation plus other details from your city location.

Track the satellite on the map from your city or location and see movement details for azimuth, elevation, latitude, longitude, range, height, and movement on the map or in text.







IsCatalogInMostPopularTable: catalog: 42759, numindb: 192
Update: records affected: 1



GetName: 42759 ZHUHAI-1 02 (CAS 4B)

Hit Count: updated at: Mon, 19 Nov 2018 10:58:29 GMT